Year,Month,Day,Hour,Minute,Value (Times are PST for temperature in C)
2008,07,10,00,00,12.30
2008,07,10,00,01,12.30
2008,07,10,00,02,12.30
2008,07,10,00,03,12.30
2008,07,10,00,04,12.30
2008,07,10,00,05,12.30
2008,07,10,00,06,12.20
2008,07,10,00,07,12.20
2008,07,10,00,08,12.20
2008,07,10,00,09,12.20
2008,07,10,00,10,12.20
2008,07,10,00,11,12.20
2008,07,10,00,12,12.20
2008,07,10,00,13,12.20
2008,07,10,00,14,12.10
2008,07,10,00,15,12.10
2008,07,10,00,16,12.10
2008,07,10,00,17,12.10
2008,07,10,00,18,12.10
2008,07,10,00,19,12.10
2008,07,10,00,20,12.10
2008,07,10,00,21,12.10
2008,07,10,00,22,12.10
2008,07,10,00,23,12.10
2008,07,10,00,24,12.10
2008,07,10,00,25,12.10
2008,07,10,00,26,12.10
2008,07,10,00,27,12.10
2008,07,10,00,28,12.10
2008,07,10,00,29,12.20
2008,07,10,00,30,12.20
2008,07,10,00,31,12.20
2008,07,10,00,32,12.20
2008,07,10,00,33,12.20
2008,07,10,00,34,12.20
2008,07,10,00,35,12.20
2008,07,10,00,36,12.20
2008,07,10,00,37,12.20
2008,07,10,00,38,12.20
2008,07,10,00,39,12.20
2008,07,10,00,40,12.20
2008,07,10,00,41,12.20
2008,07,10,00,42,12.20
2008,07,10,00,43,12.30
2008,07,10,00,44,12.30
2008,07,10,00,45,12.20
2008,07,10,00,46,12.20
2008,07,10,00,47,12.20
2008,07,10,00,48,12.20
2008,07,10,00,49,12.20
2008,07,10,00,50,12.20
2008,07,10,00,51,12.20
2008,07,10,00,52,12.20
2008,07,10,00,53,12.20
2008,07,10,00,54,12.20
2008,07,10,00,55,12.20
2008,07,10,00,56,12.20
2008,07,10,00,57,12.20
2008,07,10,00,58,12.20
2008,07,10,00,59,12.20
2008,07,10,01,00,12.10
2008,07,10,01,01,12.10
2008,07,10,01,02,12.10
2008,07,10,01,03,12.10
2008,07,10,01,04,12.10
2008,07,10,01,05,12.10
2008,07,10,01,06,12.10
2008,07,10,01,07,12.00
2008,07,10,01,08,12.00
2008,07,10,01,09,12.00
2008,07,10,01,10,12.00
2008,07,10,01,11,11.90
2008,07,10,01,12,11.90
2008,07,10,01,13,11.90
2008,07,10,01,14,11.80
2008,07,10,01,15,11.80
2008,07,10,01,16,11.80
2008,07,10,01,17,11.80
2008,07,10,01,18,11.80
2008,07,10,01,19,11.80
2008,07,10,01,20,11.80
2008,07,10,01,21,11.80
2008,07,10,01,22,11.70
2008,07,10,01,23,11.70
2008,07,10,01,24,11.70
2008,07,10,01,25,11.70
2008,07,10,01,26,11.70
2008,07,10,01,27,11.60
2008,07,10,01,28,11.60
2008,07,10,01,29,11.60
2008,07,10,01,30,11.60
2008,07,10,01,31,11.60
2008,07,10,01,32,11.60
2008,07,10,01,33,11.60
2008,07,10,01,34,11.60
2008,07,10,01,35,11.60
2008,07,10,01,36,11.60
2008,07,10,01,37,11.60
2008,07,10,01,38,11.60
2008,07,10,01,39,11.60
2008,07,10,01,40,11.50
2008,07,10,01,41,11.40
2008,07,10,01,42,11.40
2008,07,10,01,43,11.40
2008,07,10,01,44,11.40
2008,07,10,01,45,11.40
2008,07,10,01,46,11.40
2008,07,10,01,47,11.40
2008,07,10,01,48,11.40
2008,07,10,01,49,11.40
2008,07,10,01,50,11.30
2008,07,10,01,51,11.30
2008,07,10,01,52,11.30
2008,07,10,01,53,11.40
2008,07,10,01,54,11.40
2008,07,10,01,55,11.40
2008,07,10,01,56,11.40
2008,07,10,01,57,11.30
2008,07,10,01,58,11.30
2008,07,10,01,59,11.30
2008,07,10,02,00,11.20
2008,07,10,02,01,11.20
2008,07,10,02,02,11.20
2008,07,10,02,03,11.20
2008,07,10,02,04,11.20
2008,07,10,02,05,11.10
2008,07,10,02,06,11.10
2008,07,10,02,07,11.20
2008,07,10,02,08,11.20
2008,07,10,02,09,11.20
2008,07,10,02,10,11.20
2008,07,10,02,11,11.20
2008,07,10,02,12,11.20
2008,07,10,02,13,11.20
2008,07,10,02,14,11.20
2008,07,10,02,15,11.20
2008,07,10,02,16,11.20
2008,07,10,02,17,11.10
2008,07,10,02,18,11.10
2008,07,10,02,19,11.10
2008,07,10,02,20,11.10
2008,07,10,02,21,11.10
2008,07,10,02,22,11.10
2008,07,10,02,23,11.10
2008,07,10,02,24,11.10
2008,07,10,02,25,11.10
2008,07,10,02,26,10.90
2008,07,10,02,27,10.90
2008,07,10,02,28,10.90
2008,07,10,02,29,10.90
2008,07,10,02,30,10.90
2008,07,10,02,31,10.80
2008,07,10,02,32,10.80
2008,07,10,02,33,10.70
2008,07,10,02,34,10.70
2008,07,10,02,35,10.60
2008,07,10,02,36,10.60
2008,07,10,02,37,10.60
2008,07,10,02,38,10.60
2008,07,10,02,39,10.50
2008,07,10,02,40,10.40
2008,07,10,02,41,10.40
2008,07,10,02,42,10.40
2008,07,10,02,43,10.40
2008,07,10,02,44,10.40
2008,07,10,02,45,10.40
2008,07,10,02,46,10.40
2008,07,10,02,47,10.40
2008,07,10,02,48,10.40
2008,07,10,02,49,10.30
2008,07,10,02,50,10.30
2008,07,10,02,51,10.30
2008,07,10,02,52,10.20
2008,07,10,02,53,10.20
2008,07,10,02,54,10.20
2008,07,10,02,55,10.20
2008,07,10,02,56,10.20
2008,07,10,02,57,10.10
2008,07,10,02,58,10.10
2008,07,10,02,59,10.10
2008,07,10,03,00,10.10
2008,07,10,03,01,10.10
2008,07,10,03,02,10.10
2008,07,10,03,03,10.10
2008,07,10,03,04,10.10
2008,07,10,03,05,10.10
2008,07,10,03,06,10.10
2008,07,10,03,07,10.10
2008,07,10,03,08,10.10
2008,07,10,03,09,10.10
2008,07,10,03,10,10.20
2008,07,10,03,11,10.20
2008,07,10,03,12,10.20
2008,07,10,03,13,10.20
2008,07,10,03,14,10.20
2008,07,10,03,15,10.20
2008,07,10,03,16,10.20
2008,07,10,03,17,10.20
2008,07,10,03,18,10.20
2008,07,10,03,19,10.20
2008,07,10,03,20,10.20
2008,07,10,03,21,10.20
2008,07,10,03,22,10.10
2008,07,10,03,23,10.10
2008,07,10,03,24,10.10
2008,07,10,03,25,10.00
2008,07,10,03,26,9.90
2008,07,10,03,27,9.90
2008,07,10,03,28,9.90
2008,07,10,03,29,9.80
2008,07,10,03,30,9.80
2008,07,10,03,31,9.70
2008,07,10,03,32,9.70
2008,07,10,03,33,9.70
2008,07,10,03,34,9.70
2008,07,10,03,35,9.70
2008,07,10,03,36,9.70
2008,07,10,03,37,9.70
2008,07,10,03,38,9.70
2008,07,10,03,39,9.70
2008,07,10,03,40,9.70
2008,07,10,03,41,9.70
2008,07,10,03,42,9.70
2008,07,10,03,43,9.60
2008,07,10,03,44,9.70
2008,07,10,03,45,9.70
2008,07,10,03,46,9.70
2008,07,10,03,47,9.70
2008,07,10,03,48,9.70
2008,07,10,03,49,9.70
2008,07,10,03,50,9.70
2008,07,10,03,51,9.70
2008,07,10,03,52,9.70
2008,07,10,03,53,9.70
2008,07,10,03,54,9.70
2008,07,10,03,55,9.70
2008,07,10,03,56,9.70
2008,07,10,03,57,9.70
2008,07,10,03,58,9.70
2008,07,10,03,59,9.70
2008,07,10,04,00,9.70
2008,07,10,04,01,9.70
2008,07,10,04,02,9.60
2008,07,10,04,03,9.60
2008,07,10,04,04,9.60
2008,07,10,04,05,9.60
2008,07,10,04,06,9.60
2008,07,10,04,07,9.60
2008,07,10,04,08,9.50
2008,07,10,04,09,9.50
2008,07,10,04,10,9.50
2008,07,10,04,11,9.50
2008,07,10,04,12,9.50
2008,07,10,04,13,9.40
2008,07,10,04,14,9.40
2008,07,10,04,15,9.40
2008,07,10,04,16,9.40
2008,07,10,04,17,9.40
2008,07,10,04,18,9.40
2008,07,10,04,19,9.40
2008,07,10,04,20,9.40
2008,07,10,04,21,9.40
2008,07,10,04,22,9.40
2008,07,10,04,23,9.40
2008,07,10,04,24,9.40
2008,07,10,04,25,9.40
2008,07,10,04,26,9.40
2008,07,10,04,27,9.50
2008,07,10,04,28,9.50
2008,07,10,04,29,9.50
2008,07,10,04,30,9.50
2008,07,10,04,31,9.50
2008,07,10,04,32,9.50
2008,07,10,04,33,9.50
2008,07,10,04,34,9.50
2008,07,10,04,35,9.50
2008,07,10,04,36,9.50
2008,07,10,04,37,9.50
2008,07,10,04,38,9.50
2008,07,10,04,39,9.50
2008,07,10,04,40,9.40
2008,07,10,04,41,9.40
2008,07,10,04,42,9.40
2008,07,10,04,43,9.40
2008,07,10,04,44,9.40
2008,07,10,04,45,9.40
2008,07,10,04,46,9.40
2008,07,10,04,47,9.40
2008,07,10,04,48,9.40
2008,07,10,04,49,9.40
2008,07,10,04,50,9.40
2008,07,10,04,51,9.40
2008,07,10,04,52,9.40
2008,07,10,04,53,9.50
2008,07,10,04,54,9.50
2008,07,10,04,55,9.50
2008,07,10,04,56,9.50
2008,07,10,04,57,9.60
2008,07,10,04,58,9.60
2008,07,10,04,59,9.70
2008,07,10,05,00,9.70
2008,07,10,05,01,9.70
2008,07,10,05,02,9.70
2008,07,10,05,03,9.60
2008,07,10,05,04,9.60
2008,07,10,05,05,9.60
2008,07,10,05,06,9.50
2008,07,10,05,07,9.50
2008,07,10,05,08,9.50
2008,07,10,05,09,9.50
2008,07,10,05,10,9.50
2008,07,10,05,11,9.50
2008,07,10,05,12,9.50
2008,07,10,05,13,9.50
2008,07,10,05,14,9.50
2008,07,10,05,15,9.50
2008,07,10,05,16,9.50
2008,07,10,05,17,9.50
2008,07,10,05,18,9.50
2008,07,10,05,19,9.60
2008,07,10,05,20,9.60
2008,07,10,05,21,9.60
2008,07,10,05,22,9.70
2008,07,10,05,23,9.70
2008,07,10,05,24,9.70
2008,07,10,05,25,9.70
2008,07,10,05,26,9.70
2008,07,10,05,27,9.70
2008,07,10,05,28,9.80
2008,07,10,05,29,9.90
2008,07,10,05,30,9.90
2008,07,10,05,31,9.90
2008,07,10,05,32,9.90
2008,07,10,05,33,9.90
2008,07,10,05,34,10.00
2008,07,10,05,35,10.10
2008,07,10,05,36,10.10
2008,07,10,05,37,10.20
2008,07,10,05,38,10.20
2008,07,10,05,39,10.30
2008,07,10,05,40,10.30
2008,07,10,05,41,10.40
2008,07,10,05,42,10.40
2008,07,10,05,43,10.40
2008,07,10,05,44,10.40
2008,07,10,05,45,10.50
2008,07,10,05,46,10.60
2008,07,10,05,47,10.60
2008,07,10,05,48,10.60
2008,07,10,05,49,10.60
2008,07,10,05,50,10.70
2008,07,10,05,51,10.70
2008,07,10,05,52,10.70
2008,07,10,05,53,10.80
2008,07,10,05,54,10.90
2008,07,10,05,55,10.90
2008,07,10,05,56,10.90
2008,07,10,05,57,11.00
2008,07,10,05,58,11.10
2008,07,10,05,59,11.10
2008,07,10,06,00,11.10
2008,07,10,06,01,11.10
2008,07,10,06,02,11.20
2008,07,10,06,03,11.20
2008,07,10,06,04,11.30
2008,07,10,06,05,11.30
2008,07,10,06,06,11.40
2008,07,10,06,07,11.40
2008,07,10,06,08,11.40
2008,07,10,06,09,11.50
2008,07,10,06,10,11.60
2008,07,10,06,11,11.60
2008,07,10,06,12,11.60
2008,07,10,06,13,11.60
2008,07,10,06,14,11.60
2008,07,10,06,15,11.70
2008,07,10,06,16,11.80
2008,07,10,06,17,11.90
2008,07,10,06,18,11.90
2008,07,10,06,19,12.00
2008,07,10,06,20,12.00
2008,07,10,06,21,12.10
2008,07,10,06,22,12.10
2008,07,10,06,23,12.20
2008,07,10,06,24,12.20
2008,07,10,06,25,12.30
2008,07,10,06,26,12.30
2008,07,10,06,27,12.30
2008,07,10,06,28,12.30
2008,07,10,06,29,12.40
2008,07,10,06,30,12.50
2008,07,10,06,31,12.50
2008,07,10,06,32,12.60
2008,07,10,06,33,12.60
2008,07,10,06,34,12.70
2008,07,10,06,35,12.70
2008,07,10,06,36,12.70
2008,07,10,06,37,12.80
2008,07,10,06,38,12.80
2008,07,10,06,39,12.90
2008,07,10,06,40,13.00
2008,07,10,06,41,13.10
2008,07,10,06,42,13.10
2008,07,10,06,43,13.30
2008,07,10,06,44,13.30
2008,07,10,06,45,13.30
2008,07,10,06,46,13.30
2008,07,10,06,47,13.40
2008,07,10,06,48,13.40
2008,07,10,06,49,13.50
2008,07,10,06,50,13.60
2008,07,10,06,51,13.60
2008,07,10,06,52,13.70
2008,07,10,06,53,13.70
2008,07,10,06,54,13.70
2008,07,10,06,55,13.70
2008,07,10,06,56,13.70
2008,07,10,06,57,13.70
2008,07,10,06,58,13.70
2008,07,10,06,59,13.70
2008,07,10,07,00,13.60
2008,07,10,07,01,13.60
2008,07,10,07,02,13.60
2008,07,10,07,03,13.60
2008,07,10,07,04,13.60
2008,07,10,07,05,13.60
2008,07,10,07,06,13.60
2008,07,10,07,07,13.70
2008,07,10,07,08,13.70
2008,07,10,07,09,13.70
2008,07,10,07,10,13.80
2008,07,10,07,11,13.80
2008,07,10,07,12,13.80
2008,07,10,07,13,13.90
2008,07,10,07,14,13.90
2008,07,10,07,15,13.90
2008,07,10,07,16,13.90
2008,07,10,07,17,13.90
2008,07,10,07,18,14.00
2008,07,10,07,19,14.00
2008,07,10,07,20,14.00
2008,07,10,07,21,14.00
2008,07,10,07,22,14.00
2008,07,10,07,23,14.00
2008,07,10,07,24,14.00
2008,07,10,07,25,13.90
2008,07,10,07,26,13.90
2008,07,10,07,27,13.90
2008,07,10,07,28,14.00
2008,07,10,07,29,14.00
2008,07,10,07,30,14.00
2008,07,10,07,31,14.00
2008,07,10,07,32,14.10
2008,07,10,07,33,14.10
2008,07,10,07,34,14.20
2008,07,10,07,35,14.20
2008,07,10,07,36,14.30
2008,07,10,07,37,14.40
2008,07,10,07,38,14.50
2008,07,10,07,39,14.50
2008,07,10,07,40,14.50
2008,07,10,07,41,14.50
2008,07,10,07,42,14.50
2008,07,10,07,43,14.60
2008,07,10,07,44,14.60
2008,07,10,07,45,14.60
2008,07,10,07,46,14.60
2008,07,10,07,47,14.60
2008,07,10,07,48,14.70
2008,07,10,07,49,14.80
2008,07,10,07,50,14.80
2008,07,10,07,51,14.80
2008,07,10,07,52,14.80
2008,07,10,07,53,14.80
2008,07,10,07,54,14.80
2008,07,10,07,55,14.80
2008,07,10,07,56,14.80
2008,07,10,07,57,14.80
2008,07,10,07,58,14.80
2008,07,10,07,59,14.90
2008,07,10,08,00,14.90
2008,07,10,08,01,15.10
2008,07,10,08,02,15.10
2008,07,10,08,03,15.20
2008,07,10,08,04,15.20
2008,07,10,08,05,15.30
2008,07,10,08,06,15.30
2008,07,10,08,07,15.30
2008,07,10,08,08,15.30
2008,07,10,08,09,15.30
2008,07,10,08,10,15.30
2008,07,10,08,11,15.30
2008,07,10,08,12,15.30
2008,07,10,08,13,15.30
2008,07,10,08,14,15.30
2008,07,10,08,15,15.40
2008,07,10,08,16,15.50
2008,07,10,08,17,15.50
2008,07,10,08,18,15.70
2008,07,10,08,19,15.70
2008,07,10,08,20,15.80
2008,07,10,08,21,15.80
2008,07,10,08,22,15.80
2008,07,10,08,23,15.80
2008,07,10,08,24,15.80
2008,07,10,08,25,15.80
2008,07,10,08,26,15.90
2008,07,10,08,27,16.00
2008,07,10,08,28,16.10
2008,07,10,08,29,16.10
2008,07,10,08,30,16.20
2008,07,10,08,31,16.20
2008,07,10,08,32,16.20
2008,07,10,08,33,16.30
2008,07,10,08,34,16.30
2008,07,10,08,35,16.40
2008,07,10,08,36,16.40
2008,07,10,08,37,16.60
2008,07,10,08,38,16.60
2008,07,10,08,39,16.60
2008,07,10,08,40,16.70
2008,07,10,08,41,16.70
2008,07,10,08,42,16.70
2008,07,10,08,43,16.70
2008,07,10,08,44,16.70
2008,07,10,08,45,16.60
2008,07,10,08,46,16.60
2008,07,10,08,47,16.70
2008,07,10,08,48,16.70
2008,07,10,08,49,16.70
2008,07,10,08,50,16.70
2008,07,10,08,51,16.70
2008,07,10,08,52,16.50
2008,07,10,08,53,16.40
2008,07,10,08,54,16.40
2008,07,10,08,55,16.30
2008,07,10,08,56,16.30
2008,07,10,08,57,16.30
2008,07,10,08,58,16.30
2008,07,10,08,59,16.30
2008,07,10,09,00,16.30
2008,07,10,09,01,16.40
2008,07,10,09,02,16.40
2008,07,10,09,03,16.30
2008,07,10,09,04,16.30
2008,07,10,09,05,16.20
2008,07,10,09,06,16.20
2008,07,10,09,07,16.20
2008,07,10,09,08,16.10
2008,07,10,09,09,16.10
2008,07,10,09,10,16.10
2008,07,10,09,11,16.10
2008,07,10,09,12,16.10
2008,07,10,09,13,16.10
2008,07,10,09,14,16.10
2008,07,10,09,15,16.00
2008,07,10,09,16,16.10
2008,07,10,09,17,16.10
2008,07,10,09,18,16.10
2008,07,10,09,19,16.20
2008,07,10,09,20,16.30
2008,07,10,09,21,16.30
2008,07,10,09,22,16.30
2008,07,10,09,23,16.30
2008,07,10,09,24,16.30
2008,07,10,09,25,16.40
2008,07,10,09,26,16.50
2008,07,10,09,27,16.60
2008,07,10,09,28,16.60
2008,07,10,09,29,16.60
2008,07,10,09,30,16.60
2008,07,10,09,31,16.70
2008,07,10,09,32,16.60
2008,07,10,09,33,16.50
2008,07,10,09,34,16.50
2008,07,10,09,35,16.60
2008,07,10,09,36,16.40
2008,07,10,09,37,16.40
2008,07,10,09,38,16.40
2008,07,10,09,39,16.50
2008,07,10,09,40,16.60
2008,07,10,09,41,16.60
2008,07,10,09,42,16.70
2008,07,10,09,43,16.70
2008,07,10,09,44,16.70
2008,07,10,09,45,16.70
2008,07,10,09,46,16.80
2008,07,10,09,47,16.80
2008,07,10,09,48,16.90
2008,07,10,09,49,16.90
2008,07,10,09,50,16.90
2008,07,10,09,51,17.00
2008,07,10,09,52,17.00
2008,07,10,09,53,17.10
2008,07,10,09,54,17.10
2008,07,10,09,55,17.20
2008,07,10,09,56,17.20
2008,07,10,09,57,17.20
2008,07,10,09,58,17.30
2008,07,10,09,59,17.30
2008,07,10,10,00,17.30
2008,07,10,10,01,17.30
2008,07,10,10,02,17.30
2008,07,10,10,03,17.30
2008,07,10,10,04,17.30
2008,07,10,10,05,17.30
2008,07,10,10,06,17.30
2008,07,10,10,07,17.30
2008,07,10,10,08,17.40
2008,07,10,10,09,17.50
2008,07,10,10,10,17.70
2008,07,10,10,11,17.80
2008,07,10,10,12,17.70
2008,07,10,10,13,17.70
2008,07,10,10,14,17.80
2008,07,10,10,15,17.90
2008,07,10,10,16,18.00
2008,07,10,10,17,18.10
2008,07,10,10,18,18.20
2008,07,10,10,19,18.20
2008,07,10,10,20,18.20
2008,07,10,10,21,18.20
2008,07,10,10,22,18.20
2008,07,10,10,23,18.20
2008,07,10,10,24,18.20
2008,07,10,10,25,18.20
2008,07,10,10,26,18.10
2008,07,10,10,27,18.10
2008,07,10,10,28,18.20
2008,07,10,10,29,18.10
2008,07,10,10,30,18.20
2008,07,10,10,31,18.20
2008,07,10,10,32,18.20
2008,07,10,10,33,18.30
2008,07,10,10,34,18.30
2008,07,10,10,35,18.30
2008,07,10,10,36,18.30
2008,07,10,10,37,18.20
2008,07,10,10,38,18.00
2008,07,10,10,39,17.90
2008,07,10,10,40,17.90
2008,07,10,10,41,17.80
2008,07,10,10,42,17.80
2008,07,10,10,43,17.80
2008,07,10,10,44,17.80
2008,07,10,10,45,17.80
2008,07,10,10,46,17.70
2008,07,10,10,47,17.60
2008,07,10,10,48,17.60
2008,07,10,10,49,17.60
2008,07,10,10,50,17.50
2008,07,10,10,51,17.40
2008,07,10,10,52,17.40
2008,07,10,10,53,17.40
2008,07,10,10,54,17.50
2008,07,10,10,55,17.70
2008,07,10,10,56,17.70
2008,07,10,10,57,17.80
2008,07,10,10,58,17.80
2008,07,10,10,59,17.90
2008,07,10,11,00,17.90
2008,07,10,11,01,18.10
2008,07,10,11,02,18.20
2008,07,10,11,03,18.20
2008,07,10,11,04,18.20
2008,07,10,11,05,18.00
2008,07,10,11,06,17.90
2008,07,10,11,07,17.80
2008,07,10,11,08,17.70
2008,07,10,11,09,17.90
2008,07,10,11,10,17.90
2008,07,10,11,11,18.10
2008,07,10,11,12,18.20
2008,07,10,11,13,18.20
2008,07,10,11,14,18.20
2008,07,10,11,15,18.30
2008,07,10,11,16,18.50
2008,07,10,11,17,18.60
2008,07,10,11,18,18.60
2008,07,10,11,19,18.60
2008,07,10,11,20,18.50
2008,07,10,11,21,18.30
2008,07,10,11,22,18.20
2008,07,10,11,23,18.20
2008,07,10,11,24,18.20
2008,07,10,11,25,18.10
2008,07,10,11,26,17.90
2008,07,10,11,27,17.90
2008,07,10,11,28,17.90
2008,07,10,11,29,17.90
2008,07,10,11,30,17.90
2008,07,10,11,31,17.80
2008,07,10,11,32,17.80
2008,07,10,11,33,17.90
2008,07,10,11,34,18.00
2008,07,10,11,35,18.20
2008,07,10,11,36,18.30
2008,07,10,11,37,18.50
2008,07,10,11,38,18.50
2008,07,10,11,39,18.60
2008,07,10,11,40,18.60
2008,07,10,11,41,18.60
2008,07,10,11,42,18.50
2008,07,10,11,43,18.30
2008,07,10,11,44,18.40
2008,07,10,11,45,18.40
2008,07,10,11,46,18.40
2008,07,10,11,47,18.30
2008,07,10,11,48,18.30
2008,07,10,11,49,18.40
2008,07,10,11,50,18.50
2008,07,10,11,51,18.50
2008,07,10,11,52,18.50
2008,07,10,11,53,18.40
2008,07,10,11,54,18.40
2008,07,10,11,55,18.40
2008,07,10,11,56,18.40
2008,07,10,11,57,18.50
2008,07,10,11,58,18.50
2008,07,10,11,59,18.50
2008,07,10,12,00,18.20
2008,07,10,12,01,18.10
2008,07,10,12,02,18.00
2008,07,10,12,03,17.90
2008,07,10,12,04,17.90
2008,07,10,12,05,17.90
2008,07,10,12,06,17.90
2008,07,10,12,07,18.00
2008,07,10,12,08,18.10
2008,07,10,12,09,18.10
2008,07,10,12,10,18.20
2008,07,10,12,11,18.20
2008,07,10,12,12,18.20
2008,07,10,12,13,18.20
2008,07,10,12,14,18.20
2008,07,10,12,15,18.20
2008,07,10,12,16,18.10
2008,07,10,12,17,18.10
2008,07,10,12,18,18.10
2008,07,10,12,19,18.20
2008,07,10,12,20,18.20
2008,07,10,12,21,18.30
2008,07,10,12,22,18.40
2008,07,10,12,23,18.60
2008,07,10,12,24,18.90
2008,07,10,12,25,19.10
2008,07,10,12,26,19.20
2008,07,10,12,27,19.40
2008,07,10,12,28,19.30
2008,07,10,12,29,19.20
2008,07,10,12,30,19.20
2008,07,10,12,31,19.20
2008,07,10,12,32,19.30
2008,07,10,12,33,19.40
2008,07,10,12,34,19.50
2008,07,10,12,35,19.70
2008,07,10,12,36,19.90
2008,07,10,12,37,19.90
2008,07,10,12,38,19.90
2008,07,10,12,39,20.10
2008,07,10,12,40,20.10
2008,07,10,12,41,20.10
2008,07,10,12,42,20.10
2008,07,10,12,43,20.00
2008,07,10,12,44,20.00
2008,07,10,12,45,20.10
2008,07,10,12,46,20.10
2008,07,10,12,47,20.10
2008,07,10,12,48,20.10
2008,07,10,12,49,20.20
2008,07,10,12,50,20.20
2008,07,10,12,51,20.30
2008,07,10,12,52,20.20
2008,07,10,12,53,20.20
2008,07,10,12,54,20.20
2008,07,10,12,55,20.30
2008,07,10,12,56,20.50
2008,07,10,12,57,20.60
2008,07,10,12,58,20.80
2008,07,10,12,59,20.90
2008,07,10,13,00,21.00
2008,07,10,13,01,21.20
2008,07,10,13,02,21.00
2008,07,10,13,03,20.70
2008,07,10,13,04,20.60
2008,07,10,13,05,20.60
2008,07,10,13,06,20.70
2008,07,10,13,07,20.70
2008,07,10,13,08,20.70
2008,07,10,13,09,20.70
2008,07,10,13,10,20.60
2008,07,10,13,11,20.40
2008,07,10,13,12,20.20
2008,07,10,13,13,20.10
2008,07,10,13,14,20.00
2008,07,10,13,15,19.90
2008,07,10,13,16,19.90
2008,07,10,13,17,19.90
2008,07,10,13,18,19.90
2008,07,10,13,19,19.90
2008,07,10,13,20,19.90
2008,07,10,13,21,19.90
2008,07,10,13,22,19.90
2008,07,10,13,23,20.00
2008,07,10,13,24,20.10
2008,07,10,13,25,20.20
2008,07,10,13,26,20.30
2008,07,10,13,27,20.40
2008,07,10,13,28,20.50
2008,07,10,13,29,20.50
2008,07,10,13,30,20.60
2008,07,10,13,31,20.70
2008,07,10,13,32,20.70
2008,07,10,13,33,20.80
2008,07,10,13,34,20.90
2008,07,10,13,35,21.00
2008,07,10,13,36,21.10
2008,07,10,13,37,21.10
2008,07,10,13,38,21.00
2008,07,10,13,39,20.90
2008,07,10,13,40,20.80
2008,07,10,13,41,20.70
2008,07,10,13,42,20.80
2008,07,10,13,43,20.80
2008,07,10,13,44,20.80
2008,07,10,13,45,20.80
2008,07,10,13,46,20.60
2008,07,10,13,47,20.40
2008,07,10,13,48,20.20
2008,07,10,13,49,20.20
2008,07,10,13,50,20.10
2008,07,10,13,51,20.10
2008,07,10,13,52,20.10
2008,07,10,13,53,20.10
2008,07,10,13,54,20.20
2008,07,10,13,55,20.20
2008,07,10,13,56,20.20
2008,07,10,13,57,20.20
2008,07,10,13,58,20.00
2008,07,10,13,59,19.90
2008,07,10,14,00,19.70
2008,07,10,14,01,19.60
2008,07,10,14,02,19.50
2008,07,10,14,03,19.50
2008,07,10,14,04,19.60
2008,07,10,14,05,19.70
2008,07,10,14,06,19.80
2008,07,10,14,07,19.80
2008,07,10,14,08,19.80
2008,07,10,14,09,19.80
2008,07,10,14,10,19.80
2008,07,10,14,11,19.90
2008,07,10,14,12,20.10
2008,07,10,14,13,20.20
2008,07,10,14,14,20.20
2008,07,10,14,15,20.40
2008,07,10,14,16,20.50
2008,07,10,14,17,20.50
2008,07,10,14,18,20.50
2008,07,10,14,19,20.30
2008,07,10,14,20,20.20
2008,07,10,14,21,20.20
2008,07,10,14,22,20.20
2008,07,10,14,23,20.20
2008,07,10,14,24,20.10
2008,07,10,14,25,20.10
2008,07,10,14,26,20.10
2008,07,10,14,27,20.20
2008,07,10,14,28,20.30
2008,07,10,14,29,20.30
2008,07,10,14,30,20.30
2008,07,10,14,31,20.30
2008,07,10,14,32,20.20
2008,07,10,14,33,20.20
2008,07,10,14,34,20.20
2008,07,10,14,35,20.20
2008,07,10,14,36,20.40
2008,07,10,14,37,20.50
2008,07,10,14,38,20.60
2008,07,10,14,39,20.70
2008,07,10,14,40,20.60
2008,07,10,14,41,20.60
2008,07,10,14,42,20.70
2008,07,10,14,43,20.70
2008,07,10,14,44,20.80
2008,07,10,14,45,20.70
2008,07,10,14,46,20.70
2008,07,10,14,47,20.70
2008,07,10,14,48,20.70
2008,07,10,14,49,20.70
2008,07,10,14,50,20.70
2008,07,10,14,51,20.90
2008,07,10,14,52,21.00
2008,07,10,14,53,21.00
2008,07,10,14,54,20.80
2008,07,10,14,55,20.70
2008,07,10,14,56,20.60
2008,07,10,14,57,20.70
2008,07,10,14,58,20.70
2008,07,10,14,59,20.60
2008,07,10,15,00,20.70
2008,07,10,15,01,20.80
2008,07,10,15,02,20.80
2008,07,10,15,03,20.70
2008,07,10,15,04,20.50
2008,07,10,15,05,20.50
2008,07,10,15,06,20.60
2008,07,10,15,07,20.70
2008,07,10,15,08,20.70
2008,07,10,15,09,20.90
2008,07,10,15,10,21.00
2008,07,10,15,11,21.00
2008,07,10,15,12,21.00
2008,07,10,15,13,20.90
2008,07,10,15,14,20.80
2008,07,10,15,15,20.80
2008,07,10,15,16,20.80
2008,07,10,15,17,20.70
2008,07,10,15,18,20.60
2008,07,10,15,19,20.50
2008,07,10,15,20,20.50
2008,07,10,15,21,20.50
2008,07,10,15,22,20.60
2008,07,10,15,23,20.60
2008,07,10,15,24,20.60
2008,07,10,15,25,20.50
2008,07,10,15,26,20.50
2008,07,10,15,27,20.50
2008,07,10,15,28,20.60
2008,07,10,15,29,20.70
2008,07,10,15,30,20.70
2008,07,10,15,31,20.70
2008,07,10,15,32,20.60
2008,07,10,15,33,20.50
2008,07,10,15,34,20.50
2008,07,10,15,35,20.50
2008,07,10,15,36,20.60
2008,07,10,15,37,20.60
2008,07,10,15,38,20.70
2008,07,10,15,39,20.80
2008,07,10,15,40,20.90
2008,07,10,15,41,21.00
2008,07,10,15,42,21.00
2008,07,10,15,43,20.90
2008,07,10,15,44,20.80
2008,07,10,15,45,20.80
2008,07,10,15,46,20.70
2008,07,10,15,47,20.70
2008,07,10,15,48,20.60
2008,07,10,15,49,20.60
2008,07,10,15,50,20.50
2008,07,10,15,51,20.50
2008,07,10,15,52,20.50
2008,07,10,15,53,20.50
2008,07,10,15,54,20.40
2008,07,10,15,55,20.30
2008,07,10,15,56,20.30
2008,07,10,15,57,20.30
2008,07,10,15,58,20.20
2008,07,10,15,59,20.30
2008,07,10,16,00,20.50
2008,07,10,16,01,20.60
2008,07,10,16,02,20.60
2008,07,10,16,03,20.60
2008,07,10,16,04,20.50
2008,07,10,16,05,20.50
2008,07,10,16,06,20.40
2008,07,10,16,07,20.40
2008,07,10,16,08,20.40
2008,07,10,16,09,20.50
2008,07,10,16,10,20.60
2008,07,10,16,11,20.80
2008,07,10,16,12,20.90
2008,07,10,16,13,21.00
2008,07,10,16,14,21.20
2008,07,10,16,15,21.30
2008,07,10,16,16,21.40
2008,07,10,16,17,21.50
2008,07,10,16,18,21.60
2008,07,10,16,19,21.70
2008,07,10,16,20,21.70
2008,07,10,16,21,21.80
2008,07,10,16,22,21.80
2008,07,10,16,23,21.80
2008,07,10,16,24,21.70
2008,07,10,16,25,21.60
2008,07,10,16,26,21.60
2008,07,10,16,27,21.60
2008,07,10,16,28,21.60
2008,07,10,16,29,21.60
2008,07,10,16,30,21.60
2008,07,10,16,31,21.60
2008,07,10,16,32,21.70
2008,07,10,16,33,21.80
2008,07,10,16,34,21.80
2008,07,10,16,35,21.70
2008,07,10,16,36,21.60
2008,07,10,16,37,21.60
2008,07,10,16,38,21.40
2008,07,10,16,39,21.30
2008,07,10,16,40,21.20
2008,07,10,16,41,21.20
2008,07,10,16,42,21.20
2008,07,10,16,43,21.20
2008,07,10,16,44,21.20
2008,07,10,16,45,21.30
2008,07,10,16,46,21.30
2008,07,10,16,47,21.40
2008,07,10,16,48,21.60
2008,07,10,16,49,21.70
2008,07,10,16,50,21.70
2008,07,10,16,51,21.80
2008,07,10,16,52,21.80
2008,07,10,16,53,21.70
2008,07,10,16,54,21.80
2008,07,10,16,55,21.80
2008,07,10,16,56,21.90
2008,07,10,16,57,22.00
2008,07,10,16,58,22.10
2008,07,10,16,59,22.20
2008,07,10,17,00,22.10
2008,07,10,17,01,22.10
2008,07,10,17,02,22.10
2008,07,10,17,03,22.10
2008,07,10,17,04,22.10
2008,07,10,17,05,22.00
2008,07,10,17,06,21.90
2008,07,10,17,07,21.70
2008,07,10,17,08,21.50
2008,07,10,17,09,21.30
2008,07,10,17,10,21.10
2008,07,10,17,11,21.00
2008,07,10,17,12,20.90
2008,07,10,17,13,20.90
2008,07,10,17,14,20.80
2008,07,10,17,15,20.80
2008,07,10,17,16,20.80
2008,07,10,17,17,20.90
2008,07,10,17,18,21.00
2008,07,10,17,19,21.00
2008,07,10,17,20,21.00
2008,07,10,17,21,21.10
2008,07,10,17,22,21.20
2008,07,10,17,23,21.20
2008,07,10,17,24,21.20
2008,07,10,17,25,21.20